Flag for Tanzania Weather past 2 weeks in Zanzibar City, Tanzania

Now
90 °F

Passing clouds.


Feels Like: 100 °F
Forecast: 81 / 88 °F
Wind: 12 mph from Southeast

Location: Mombasa Airport

Current Time: Apr 2, 2015 at 1:44:50 PM

Latest Report: Apr 2, 2015 at 1:00 PM


Visibility: N/A

Pressure: 29.83 "Hg

Humidity: 63%

Dew point: 75 °F

Location of Zanzibar CityLocation

Historic Weather in Zanzibar City — Graph

°F

Zanzibar City temperature yesterday

Maximum temperature yesterday: 90 °F (at 11:00 AM)
Minimum temperature yesterday: 77 °F (at 6:00 AM)
Average temperature yesterday: 84 °F

Past Weeks' High & Low Weather Summary

 TemperatureHumidityPressure
High91 °F (Mar 18, 2:00 PM)100% (Mar 24, 6:00 AM)30.01 "Hg (Mar 24, 6:00 AM)
Low75 °F (Mar 21, 8:00 AM)49% (Mar 18, 2:00 PM)29.77 "Hg (Mar 19, 5:00 PM)
Average83 °F78%29.88 "Hg
* Reported Mar 18 12:00 Noon — Apr 2 12:00 Noon, Zanzibar City, Weather by CustomWeather, © 2015

Note: Actual official high and low records may vary slightly from our data, if they occured in-between our weather recording intervals... More about our weather records

Advertising

Zanzibar City weather history for previous 24 hours

 ConditionsComfort  
Time TempWeatherWind HumidityBarometerVisibility
12:00 PM
Thu, Apr 2
90 °FScattered clouds.10 mph59%29.86 "HgN/A
11:00 AM88 °FScattered clouds.12 mph62%29.89 "HgN/A
10:00 AM88 °FPartly sunny.10 mph66%29.92 "HgN/A
9:00 AM86 °FScattered clouds.9 mph75%29.92 "HgN/A
8:00 AM82 °FPassing clouds.8 mph84%29.89 "HgN/A
7:00 AM79 °FPassing clouds.6 mph94%29.89 "HgN/A
6:00 AM79 °FPassing clouds.No wind94%29.86 "HgN/A
5:00 AM79 °FPassing clouds.No wind89%29.83 "HgN/A
3:00 AM79 °FPassing clouds.No wind89%29.83 "HgN/A
2:00 AM79 °FPassing clouds.No wind94%29.83 "HgN/A
1:00 AM81 °FPassing clouds.No wind89%29.86 "HgN/A
12:00 AM81 °FPassing clouds.3 mph84%29.89 "HgN/A
11:00 PM
Wed, Apr 1
82 °FPassing clouds.6 mph79%29.89 "HgN/A
10:00 PM82 °FPassing clouds.7 mph79%29.89 "HgN/A
9:00 PM82 °FPassing clouds.7 mph79%29.86 "HgN/A
8:00 PM82 °FPassing clouds.5 mph79%29.83 "HgN/A
7:00 PM82 °FPassing clouds.8 mph79%29.80 "HgN/A
6:00 PM84 °FPassing clouds.9 mph70%29.80 "HgN/A
5:00 PM86 °FPassing clouds.9 mph70%29.80 "HgN/A
4:00 PM88 °FPassing clouds.13 mph66%29.80 "HgN/A
3:00 PM88 °FPassing clouds.12 mph62%29.83 "HgN/A
2:00 PM90 °FPassing clouds.12 mph55%29.86 "HgN/A
1:00 PM90 °FPassing clouds.12 mph52%29.86 "HgN/A
Weather by CustomWeather, © 2015

See weather overviewHow to use our weather pages